Time,TemperatureF,DewpointF,PressureIn,WindDirection,WindDirectionDegrees,WindSpeedMPH,WindSpeedGustMPH,Humidity,HourlyPrecipIn,Conditions,Clouds,dailyrainin,SoftwareType,DateUTC
2013-02-01 00:03:00,38.2,33.5,30.23,West,271,12.7,12.7,83,0.00,RA,,0.00,WeatherDisplay:10.37,2013-02-01 08:03:00,
2013-02-01 00:08:00,38.2,33.5,30.23,West,273,15.0,15.0,83,0.00,RA,,0.00,WeatherDisplay:10.37,2013-02-01 08:08:00,
2013-02-01 00:13:00,38.1,33.4,30.23,West,279,11.5,11.5,83,0.00,OVC,,0.00,WeatherDisplay:10.37,2013-02-01 08:13:00,
2013-02-01 00:18:00,38.1,33.4,30.23,West,279,11.5,11.5,83,0.00,OVC,,0.00,WeatherDisplay:10.37,2013-02-01 08:18:00,
2013-02-01 00:23:00,38.2,33.2,30.23,West,281,13.8,13.8,82,0.00,OVC,,0.00,WeatherDisplay:10.37,2013-02-01 08:23:00,
2013-02-01 00:28:00,38.3,33.3,30.23,WNW,284,11.5,11.5,82,0.00,OVC,,0.00,WeatherDisplay:10.37,2013-02-01 08:28:00,
2013-02-01 00:33:00,38.2,33.2,30.23,WNW,285,12.7,12.7,82,0.00,OVC,,0.00,WeatherDisplay:10.37,2013-02-01 08:33:00,
2013-02-01 00:38:00,38.2,33.2,30.23,WNW,298,9.0,9.0,82,0.00,OVC,,0.00,WeatherDisplay:10.37,2013-02-01 08:38:00,
2013-02-01 00:43:00,38.1,33.1,30.23,WNW,282,11.5,11.5,82,0.00,OVC,,0.00,WeatherDisplay:10.37,2013-02-01 08:43:00,
2013-02-01 00:48:00,37.8,32.8,30.23,WNW,286,10.4,10.4,82,0.00,OVC,,0.00,WeatherDisplay:10.37,2013-02-01 08:48:00,
2013-02-01 00:53:00,37.8,33.1,30.23,West,281,11.0,11.0,83,0.00,OVC,,0.00,WeatherDisplay:10.37,2013-02-01 08:53:00,
2013-02-01 00:58:00,37.9,32.9,30.23,West,281,15.0,15.0,82,0.00,OVC,,0.00,WeatherDisplay:10.37,2013-02-01 08:58:00,
2013-02-01 01:03:00,37.8,33.1,30.23,WNW,284,11.5,11.5,83,0.00,OVC,,0.00,WeatherDisplay:10.37,2013-02-01 09:03:00,
2013-02-01 01:08:00,37.5,33.1,30.23,NW,304,6.9,6.9,84,0.00,OVC,,0.00,WeatherDisplay:10.37,2013-02-01 09:08:00,
2013-02-01 01:13:00,37.1,33.0,30.24,WNW,298,5.8,5.8,85,0.00,OVC,,0.00,WeatherDisplay:10.37,2013-02-01 09:13:00,
2013-02-01 01:18:00,36.9,33.1,30.24,WNW,294,3.5,3.5,86,0.00,OVC,,0.00,WeatherDisplay:10.37,2013-02-01 09:18:00,
2013-02-01 01:23:00,36.7,33.2,30.24,WNW,284,5.0,5.0,87,0.00,OVC,,0.00,WeatherDisplay:10.37,2013-02-01 09:23:00,
2013-02-01 01:28:00,36.6,33.1,30.24,West,280,11.5,11.5,87,0.00,OVC,,0.00,WeatherDisplay:10.37,2013-02-01 09:28:00,
2013-02-01 01:33:00,36.5,33.0,30.24,WNW,291,5.8,5.8,87,0.00,OVC,,0.00,WeatherDisplay:10.37,2013-02-01 09:33:00,
2013-02-01 01:38:00,36.4,32.9,30.25,WNW,292,4.0,4.0,87,0.00,OVC,,0.00,WeatherDisplay:10.37,2013-02-01 09:38:00,
2013-02-01 01:43:00,36.4,33.2,30.25,WNW,291,4.6,4.6,88,0.00,OVC,,0.00,WeatherDisplay:10.37,2013-02-01 09:43:00,
2013-02-01 01:48:00,36.4,33.2,30.25,WNW,291,3.5,3.5,88,0.00,OVC,,0.00,WeatherDisplay:10.37,2013-02-01 09:48:00,
2013-02-01 01:53:00,36.5,33.3,30.25,WNW,286,3.5,3.5,88,0.00,OVC,,0.00,WeatherDisplay:10.37,2013-02-01 09:53:00,
2013-02-01 01:58:00,36.5,33.3,30.25,WNW,286,5.0,5.0,88,0.00,OVC,,0.00,WeatherDisplay:10.37,2013-02-01 09:58:00,
2013-02-01 02:03:00,36.4,33.2,30.26,WNW,298,5.8,5.8,88,0.00,OVC,,0.00,WeatherDisplay:10.37,2013-02-01 10:03:00,
2013-02-01 02:08:00,36.4,33.2,30.26,WNW,286,7.0,7.0,88,0.00,OVC,,0.00,WeatherDisplay:10.37,2013-02-01 10:08:00,
2013-02-01 02:13:00,36.3,33.1,30.26,West,281,10.4,10.4,88,0.00,OVC,,0.00,WeatherDisplay:10.37,2013-02-01 10:13:00,
2013-02-01 02:18:00,36.3,33.4,30.25,West,278,12.7,12.7,89,0.00,OVC,,0.00,WeatherDisplay:10.37,2013-02-01 10:18:00,
2013-02-01 02:23:00,36.3,33.4,30.25,WNW,282,15.0,15.0,89,0.01,RA,,0.01,WeatherDisplay:10.37,2013-02-01 10:23:00,
2013-02-01 02:28:00,36.4,33.5,30.26,WNW,287,15.0,15.0,89,0.01,RA,,0.01,WeatherDisplay:10.37,2013-02-01 10:28:00,
2013-02-01 02:33:00,36.2,33.3,30.26,WNW,294,6.9,6.9,89,0.01,OVC,,0.01,WeatherDisplay:10.37,2013-02-01 10:33:00,
2013-02-01 02:38:00,36.1,33.2,30.26,West,280,11.0,11.0,89,0.01,OVC,,0.01,WeatherDisplay:10.37,2013-02-01 10:38:00,
2013-02-01 02:43:00,36.0,33.1,30.26,West,273,11.5,11.5,89,0.01,OVC,,0.01,WeatherDisplay:10.37,2013-02-01 10:43:00,
2013-02-01 02:48:00,36.0,33.4,30.26,WNW,284,13.8,13.8,90,0.01,OVC,,0.01,WeatherDisplay:10.37,2013-02-01 10:48:00,
2013-02-01 02:53:00,36.0,33.4,30.26,WNW,282,11.5,11.5,90,0.01,OVC,,0.01,WeatherDisplay:10.37,2013-02-01 10:53:00,
2013-02-01 02:58:00,36.0,33.4,30.26,WNW,288,16.1,16.1,90,0.01,OVC,,0.01,WeatherDisplay:10.37,2013-02-01 10:58:00,
2013-02-01 03:03:00,36.2,33.5,30.26,West,279,13.8,13.8,90,0.01,OVC,,0.01,WeatherDisplay:10.37,2013-02-01 11:03:00,
2013-02-01 03:08:00,36.4,33.5,30.26,WNW,284,11.5,11.5,89,0.01,OVC,,0.01,WeatherDisplay:10.37,2013-02-01 11:08:00,
2013-02-01 03:14:00,36.4,33.2,30.26,WNW,290,10.4,10.4,88,0.01,OVC,,0.01,WeatherDisplay:10.37,2013-02-01 11:14:00,
2013-02-01 03:19:00,36.4,33.2,30.26,WNW,283,13.0,13.0,88,0.01,OVC,,0.01,WeatherDisplay:10.37,2013-02-01 11:19:00,
2013-02-01 03:24:00,36.4,33.2,30.26,West,279,11.5,11.5,88,0.00,OVC,,0.01,WeatherDisplay:10.37,2013-02-01 11:24:00,
2013-02-01 03:29:00,36.4,33.2,30.27,West,276,6.9,7.2,88,0.00,OVC,,0.01,WeatherDisplay:10.37,2013-02-01 11:29:00,
2013-02-01 03:34:00,36.3,33.1,30.27,WNW,298,11.5,11.5,88,0.00,OVC,,0.01,WeatherDisplay:10.37,2013-02-01 11:34:00,
2013-02-01 03:39:00,36.3,33.1,30.27,WNW,290,7.0,7.0,88,0.00,OVC,,0.01,WeatherDisplay:10.37,2013-02-01 11:39:00,
2013-02-01 03:44:00,36.4,33.2,30.27,WNW,283,9.0,9.0,88,0.00,OVC,,0.01,WeatherDisplay:10.37,2013-02-01 11:44:00,
2013-02-01 03:49:00,36.3,33.1,30.27,West,280,6.0,6.0,88,0.00,OVC,,0.01,WeatherDisplay:10.37,2013-02-01 11:49:00,
2013-02-01 03:54:00,36.2,33.0,30.27,WNW,283,5.8,5.8,88,0.00,OVC,,0.01,WeatherDisplay:10.37,2013-02-01 11:54:00,
2013-02-01 03:59:00,36.1,33.2,30.27,WNW,286,4.6,4.9,89,0.00,OVC,,0.01,WeatherDisplay:10.37,2013-02-01 11:59:00,
2013-02-01 04:04:00,36.1,33.2,30.28,West,273,10.0,10.0,89,0.00,BKN,,0.01,WeatherDisplay:10.37,2013-02-01 12:04:00,
2013-02-01 04:09:00,36.0,33.1,30.28,West,279,11.5,11.5,89,0.00,BKN,,0.01,WeatherDisplay:10.37,2013-02-01 12:09:00,
2013-02-01 04:14:00,36.0,33.1,30.29,West,281,11.5,11.5,89,0.00,BKN,,0.01,WeatherDisplay:10.37,2013-02-01 12:14:00,
2013-02-01 04:19:00,35.9,33.0,30.29,West,278,10.4,10.4,89,0.00,BKN,,0.01,WeatherDisplay:10.37,2013-02-01 12:19:00,
2013-02-01 04:24:00,35.8,32.9,30.28,West,277,9.2,9.2,89,0.00,BKN,,0.01,WeatherDisplay:10.37,2013-02-01 12:24:00,
2013-02-01 04:29:00,35.7,33.1,30.29,West,280,5.8,5.8,90,0.00,BKN,,0.01,WeatherDisplay:10.37,2013-02-01 12:29:00,
2013-02-01 04:34:00,35.6,32.7,30.29,West,280,5.8,5.8,89,0.00,BKN,,0.01,WeatherDisplay:10.37,2013-02-01 12:34:00,
2013-02-01 04:39:00,35.5,32.6,30.29,West,279,3.5,3.5,89,0.00,BKN,,0.01,WeatherDisplay:10.37,2013-02-01 12:39:00,
2013-02-01 04:44:00,35.3,32.4,30.30,West,279,2.3,2.3,89,0.00,BKN,,0.01,WeatherDisplay:10.37,2013-02-01 12:44:00,
2013-02-01 04:49:00,35.2,32.3,30.29,West,279,4.0,4.0,89,0.00,BKN,,0.01,WeatherDisplay:10.37,2013-02-01 12:49:00,
2013-02-01 04:54:00,35.1,32.5,30.29,West,279,4.6,4.6,90,0.00,BKN,,0.01,WeatherDisplay:10.37,2013-02-01 12:54:00,
2013-02-01 04:59:00,35.2,32.3,30.29,West,277,9.0,9.0,89,0.00,BKN,,0.01,WeatherDisplay:10.37,2013-02-01 12:59:00,
2013-02-01 05:04:00,35.3,32.4,30.31,West,273,10.4,10.4,89,0.00,CLR,,0.01,WeatherDisplay:10.37,2013-02-01 13:04:00,
2013-02-01 05:09:00,35.6,32.4,30.30,West,271,11.5,11.5,88,0.00,CLR,,0.01,WeatherDisplay:10.37,2013-02-01 13:09:00,
2013-02-01 05:14:00,35.8,32.3,30.30,West,271,11.5,11.5,87,0.00,CLR,,0.01,WeatherDisplay:10.37,2013-02-01 13:14:00,
2013-02-01 05:19:00,35.9,32.4,30.30,WNW,286,11.5,11.5,87,0.00,CLR,,0.01,WeatherDisplay:10.37,2013-02-01 13:19:00,
2013-02-01 05:24:00,36.0,32.5,30.30,West,276,11.5,11.5,87,0.00,CLR,,0.01,WeatherDisplay:10.37,2013-02-01 13:24:00,
2013-02-01 05:29:00,36.1,32.3,30.30,West,275,13.0,13.0,86,0.00,CLR,,0.01,WeatherDisplay:10.37,2013-02-01 13:29:00,
2013-02-01 05:34:00,36.1,32.3,30.30,West,275,11.5,11.5,86,0.00,CLR,,0.01,WeatherDisplay:10.37,2013-02-01 13:34:00,
2013-02-01 05:39:00,35.8,32.0,30.30,West,273,11.5,11.5,86,0.00,CLR,,0.01,WeatherDisplay:10.37,2013-02-01 13:39:00,
2013-02-01 05:44:00,35.9,32.1,30.30,West,267,13.8,13.8,86,0.00,CLR,,0.01,WeatherDisplay:10.37,2013-02-01 13:44:00,
2013-02-01 05:49:00,36.0,32.2,30.30,West,267,11.5,11.5,86,0.00,CLR,,0.01,WeatherDisplay:10.37,2013-02-01 13:49:00,
2013-02-01 05:54:00,35.9,32.1,30.31,West,271,10.4,10.4,86,0.00,CLR,,0.01,WeatherDisplay:10.37,2013-02-01 13:54:00,
2013-02-01 05:59:00,35.9,32.1,30.31,West,272,10.4,10.4,86,0.00,CLR,,0.01,WeatherDisplay:10.37,2013-02-01 13:59:00,
2013-02-01 06:04:00,35.8,32.0,30.32,West,266,5.8,5.8,86,0.00,CLR,,0.01,WeatherDisplay:10.37,2013-02-01 14:04:00,
2013-02-01 06:09:00,35.8,32.3,30.32,West,266,4.0,4.0,87,0.00,CLR,,0.01,WeatherDisplay:10.37,2013-02-01 14:09:00,
2013-02-01 06:14:00,35.9,32.1,30.32,West,265,4.0,4.0,86,0.00,CLR,,0.01,WeatherDisplay:10.37,2013-02-01 14:14:00,
2013-02-01 06:19:00,36.0,32.2,30.32,West,266,3.5,3.5,86,0.00,CLR,,0.01,WeatherDisplay:10.37,2013-02-01 14:19:00,
2013-02-01 06:24:00,36.0,32.2,30.32,West,265,3.5,3.5,86,0.00,CLR,,0.01,WeatherDisplay:10.37,2013-02-01 14:24:00,
2013-02-01 06:29:00,35.9,32.1,30.32,West,266,2.3,2.3,86,0.00,CLR,,0.01,WeatherDisplay:10.37,2013-02-01 14:29:00,
2013-02-01 06:34:00,35.8,32.0,30.33,West,266,2.3,2.3,86,0.00,CLR,,0.01,WeatherDisplay:10.37,2013-02-01 14:34:00,
2013-02-01 06:39:00,35.6,31.8,30.33,West,265,0.0,0.0,86,0.00,CLR,,0.01,WeatherDisplay:10.37,2013-02-01 14:39:00,
2013-02-01 06:44:00,35.4,31.9,30.33,North,355,3.5,3.5,87,0.00,CLR,,0.01,WeatherDisplay:10.37,2013-02-01 14:44:00,
2013-02-01 06:49:00,35.0,31.8,30.33,NNE,12,3.5,3.5,88,0.00,CLR,,0.01,WeatherDisplay:10.37,2013-02-01 14:49:00,
2013-02-01 06:54:00,34.7,31.8,30.33,NNE,16,4.6,4.6,89,0.00,CLR,,0.01,WeatherDisplay:10.37,2013-02-01 14:54:00,
2013-02-01 06:59:00,34.4,31.8,30.33,NNE,15,3.5,3.5,90,0.00,CLR,,0.01,WeatherDisplay:10.37,2013-02-01 14:59:00,
2013-02-01 07:04:00,34.4,31.8,30.33,NNE,19,3.5,3.9,90,0.00,CLR,,0.01,WeatherDisplay:10.37,2013-02-01 15:04:00,
2013-02-01 07:09:00,34.1,31.7,30.33,NNE,19,4.0,4.0,91,0.00,CLR,,0.01,WeatherDisplay:10.37,2013-02-01 15:09:00,
2013-02-01 07:14:00,33.9,31.8,30.33,NNE,19,3.5,3.5,92,0.00,CLR,,0.01,WeatherDisplay:10.37,2013-02-01 15:14:00,
2013-02-01 07:19:00,33.8,31.7,30.33,NNE,19,3.5,3.5,92,0.00,CLR,,0.01,WeatherDisplay:10.37,2013-02-01 15:19:00,
2013-02-01 07:24:00,33.7,31.9,30.34,NNE,19,3.5,3.5,93,0.00,CLR,,0.01,WeatherDisplay:10.37,2013-02-01 15:24:00,
2013-02-01 07:29:00,33.7,31.9,30.34,NNE,18,3.5,3.5,93,0.00,CLR,,0.01,WeatherDisplay:10.37,2013-02-01 15:29:00,
2013-02-01 07:34:00,33.7,31.9,30.34,NNE,18,2.3,2.3,93,0.00,CLR,,0.01,WeatherDisplay:10.37,2013-02-01 15:34:00,
2013-02-01 07:39:00,33.8,32.0,30.34,NNE,19,3.5,3.5,93,0.00,CLR,,0.01,WeatherDisplay:10.37,2013-02-01 15:39:00,
2013-02-01 07:44:00,34.0,32.2,30.35,NNE,19,2.3,2.3,93,0.00,CLR,,0.01,WeatherDisplay:10.37,2013-02-01 15:44:00,
2013-02-01 07:49:00,34.1,32.3,30.35,NNE,18,2.3,2.3,93,0.00,CLR,,0.01,WeatherDisplay:10.37,2013-02-01 15:49:00,
2013-02-01 07:54:00,33.7,31.9,30.35,ENE,73,4.0,4.0,93,0.00,CLR,,0.01,WeatherDisplay:10.37,2013-02-01 15:54:00,
2013-02-01 07:59:00,33.9,32.4,30.36,East,90,3.5,3.5,94,0.00,CLR,,0.01,WeatherDisplay:10.37,2013-02-01 15:59:00,
2013-02-01 08:04:00,33.8,32.3,30.36,ESE,120,3.5,3.5,94,0.00,CLR,,0.01,WeatherDisplay:10.37,2013-02-01 16:04:00,
2013-02-01 08:09:00,33.8,32.3,30.36,ESE,122,3.5,3.5,94,0.00,CLR,,0.01,WeatherDisplay:10.37,2013-02-01 16:09:00,
2013-02-01 08:14:00,33.8,32.3,30.37,SE,134,3.5,3.5,94,0.00,CLR,,0.01,WeatherDisplay:10.37,2013-02-01 16:14:00,
2013-02-01 08:19:00,33.8,32.3,30.37,SE,134,3.5,3.5,94,0.00,CLR,,0.01,WeatherDisplay:10.37,2013-02-01 16:19:00,
2013-02-01 08:24:00,33.9,32.4,30.37,SE,135,3.5,3.5,94,0.00,CLR,,0.01,WeatherDisplay:10.37,2013-02-01 16:24:00,
2013-02-01 08:29:00,33.9,32.4,30.37,SE,134,3.5,3.5,94,0.00,CLR,,0.01,WeatherDisplay:10.37,2013-02-01 16:29:00,
2013-02-01 08:35:00,34.1,32.6,30.37,SE,135,3.5,3.5,94,0.00,CLR,,0.01,WeatherDisplay:10.37,2013-02-01 16:35:00,
2013-02-01 08:40:00,34.4,32.6,30.37,SE,135,3.5,3.5,93,0.00,CLR,,0.01,WeatherDisplay:10.37,2013-02-01 16:40:00,
2013-02-01 08:45:00,34.4,32.6,30.37,SE,135,2.3,2.3,93,0.00,CLR,,0.01,WeatherDisplay:10.37,2013-02-01 16:45:00,
2013-02-01 08:50:00,34.4,32.3,30.37,SE,134,2.3,2.3,92,0.00,CLR,,0.01,WeatherDisplay:10.37,2013-02-01 16:50:00,
2013-02-01 08:55:00,34.7,32.6,30.37,SE,135,1.1,1.1,92,0.00,CLR,,0.01,WeatherDisplay:10.37,2013-02-01 16:55:00,
2013-02-01 09:00:00,35.4,33.3,30.38,SE,134,0.0,0.0,92,0.00,CLR,,0.01,WeatherDisplay:10.37,2013-02-01 17:00:00,
2013-02-01 09:05:00,36.8,35.0,30.37,SE,135,0.0,0.0,93,0.00,CLR,,0.01,WeatherDisplay:10.37,2013-02-01 17:05:00,
2013-02-01 09:10:00,37.0,34.3,30.37,SE,135,0.0,0.0,90,0.00,CLR,,0.01,WeatherDisplay:10.37,2013-02-01 17:10:00,
2013-02-01 09:15:00,37.0,34.1,30.37,SE,135,0.0,0.0,89,0.00,CLR,,0.01,WeatherDisplay:10.37,2013-02-01 17:15:00,
2013-02-01 09:20:00,39.3,37.7,30.36,SE,135,0.0,0.0,94,0.00,CLR,,0.01,WeatherDisplay:10.37,2013-02-01 17:20:00,
2013-02-01 09:25:00,42.3,40.1,30.34,SE,134,3.5,3.5,92,0.00,CLR,,0.01,WeatherDisplay:10.37,2013-02-01 17:25:00,
2013-02-01 09:30:00,44.2,39.1,30.34,West,275,9.2,9.2,82,0.00,CLR,,0.01,WeatherDisplay:10.37,2013-02-01 17:30:00,
2013-02-01 09:35:00,45.0,39.8,30.34,West,279,0.0,0.0,82,0.00,CLR,,0.01,WeatherDisplay:10.37,2013-02-01 17:35:00,
2013-02-01 09:40:00,45.4,38.6,30.34,West,279,2.3,2.3,77,0.00,CLR,,0.01,WeatherDisplay:10.37,2013-02-01 17:40:00,
2013-02-01 09:45:00,44.2,36.1,30.35,West,279,4.6,4.6,73,0.00,CLR,,0.01,WeatherDisplay:10.37,2013-02-01 17:45:00,
2013-02-01 09:50:00,42.9,35.9,30.35,West,279,1.1,1.1,76,0.00,CLR,,0.01,WeatherDisplay:10.37,2013-02-01 17:50:00,
2013-02-01 09:55:00,42.5,36.1,30.35,West,279,3.5,3.5,78,0.00,CLR,,0.01,WeatherDisplay:10.37,2013-02-01 17:55:00,
2013-02-01 10:00:00,42.7,35.7,30.35,West,279,3.5,3.5,76,0.00,CLR,,0.01,WeatherDisplay:10.37,2013-02-01 18:00:00,
2013-02-01 10:05:00,42.0,35.0,30.35,West,279,1.1,0.0,76,0.00,,,0.01,WeatherDisplay:10.37,2013-02-01 18:05:00,
2013-02-01 10:10:00,41.6,34.6,30.35,West,279,2.3,2.3,76,0.00,,,0.01,WeatherDisplay:10.37,2013-02-01 18:10:00,
2013-02-01 10:15:00,39.6,33.9,30.36,West,279,0.0,0.0,80,0.00,,,0.01,WeatherDisplay:10.37,2013-02-01 18:15:00,
2013-02-01 10:20:00,38.8,33.5,30.37,West,279,3.0,3.0,81,0.00,,,0.01,WeatherDisplay:10.37,2013-02-01 18:20:00,
2013-02-01 10:25:00,37.6,33.2,30.37,West,279,0.0,0.1,84,0.00,,,0.01,WeatherDisplay:10.37,2013-02-01 18:25:00,
2013-02-01 10:30:00,37.2,33.4,30.38,West,279,0.0,0.0,86,0.00,,,0.01,WeatherDisplay:10.37,2013-02-01 18:30:00,
2013-02-01 10:35:00,37.7,34.5,30.38,West,279,2.3,2.3,88,0.00,,,0.01,WeatherDisplay:10.37,2013-02-01 18:35:00,
2013-02-01 10:40:00,37.7,33.6,30.38,West,279,1.1,0.0,85,0.00,,,0.01,WeatherDisplay:10.37,2013-02-01 18:40:00,
2013-02-01 10:45:00,37.4,33.9,30.38,West,279,0.0,0.0,87,0.00,,,0.01,WeatherDisplay:10.37,2013-02-01 18:45:00,
2013-02-01 10:50:00,37.6,33.8,30.38,West,279,1.1,0.0,86,0.00,,,0.01,WeatherDisplay:10.37,2013-02-01 18:50:00,
2013-02-01 10:55:00,37.7,33.6,30.37,West,277,9.2,9.2,85,0.00,,,0.01,WeatherDisplay:10.37,2013-02-01 18:55:00,
2013-02-01 11:00:00,37.8,32.5,30.38,West,268,11.5,11.5,81,0.00,CLR,,0.01,WeatherDisplay:10.37,2013-02-01 19:00:00,
2013-02-01 11:05:00,37.8,32.2,30.38,West,271,6.0,6.0,80,0.00,CLR,,0.01,WeatherDisplay:10.37,2013-02-01 19:05:00,
2013-02-01 11:10:00,37.5,31.9,30.38,West,268,9.2,9.2,80,0.00,CLR,,0.01,WeatherDisplay:10.37,2013-02-01 19:10:00,
2013-02-01 11:15:00,37.5,31.9,30.38,West,273,9.0,9.0,80,0.00,CLR,,0.01,WeatherDisplay:10.37,2013-02-01 19:15:00,
2013-02-01 11:20:00,37.6,32.0,30.38,West,272,11.5,11.5,80,0.00,CLR,,0.01,WeatherDisplay:10.37,2013-02-01 19:20:00,
2013-02-01 11:25:00,37.6,32.0,30.38,West,273,10.4,10.4,80,0.00,CLR,,0.01,WeatherDisplay:10.37,2013-02-01 19:25:00,
2013-02-01 11:30:00,37.5,31.6,30.38,West,277,10.4,10.4,79,0.00,CLR,,0.01,WeatherDisplay:10.37,2013-02-01 19:30:00,
2013-02-01 11:35:00,37.6,32.0,30.38,West,272,6.0,6.0,80,0.00,CLR,,0.01,WeatherDisplay:10.37,2013-02-01 19:35:00,
2013-02-01 11:40:00,37.8,32.2,30.38,West,273,6.9,6.9,80,0.00,CLR,,0.01,WeatherDisplay:10.37,2013-02-01 19:40:00,
2013-02-01 11:45:00,38.2,32.3,30.38,West,271,10.4,10.4,79,0.00,CLR,,0.01,WeatherDisplay:10.37,2013-02-01 19:45:00,
2013-02-01 11:50:00,38.9,32.9,30.37,West,276,3.5,3.5,79,0.00,CLR,,0.01,WeatherDisplay:10.37,2013-02-01 19:50:00,
2013-02-01 11:55:00,40.0,33.4,30.37,WNW,284,5.8,5.8,77,0.00,CLR,,0.01,WeatherDisplay:10.37,2013-02-01 19:55:00,
2013-02-01 12:00:00,41.1,35.7,30.37,North,5,5.8,5.8,81,0.00,CLR,,0.01,WeatherDisplay:10.37,2013-02-01 20:00:00,
2013-02-01 12:05:00,41.7,35.7,30.36,North,360,3.5,3.5,79,0.00,SCT,,0.01,WeatherDisplay:10.37,2013-02-01 20:05:00,
2013-02-01 12:10:00,42.7,36.0,30.36,North,350,3.5,3.5,77,0.00,SCT,,0.01,WeatherDisplay:10.37,2013-02-01 20:10:00,
2013-02-01 12:15:00,43.1,36.7,30.36,North,350,0.0,0.0,78,0.00,SCT,,0.01,WeatherDisplay:10.37,2013-02-01 20:15:00,
2013-02-01 12:20:00,44.6,36.5,30.35,North,350,1.1,1.1,73,0.00,SCT,,0.01,WeatherDisplay:10.37,2013-02-01 20:20:00,
2013-02-01 12:25:00,45.2,34.9,30.35,North,350,0.0,0.0,67,0.00,SCT,,0.01,WeatherDisplay:10.37,2013-02-01 20:25:00,
2013-02-01 12:30:00,44.2,35.0,30.35,North,5,3.5,3.5,70,0.00,SCT,,0.01,WeatherDisplay:10.37,2013-02-01 20:30:00,
2013-02-01 12:35:00,42.0,34.3,30.36,North,5,3.5,3.5,74,0.00,SCT,,0.01,WeatherDisplay:10.37,2013-02-01 20:35:00,
2013-02-01 12:40:00,40.3,34.0,30.37,North,5,0.0,0.0,78,0.00,SCT,,0.01,WeatherDisplay:10.37,2013-02-01 20:40:00,
2013-02-01 12:45:00,39.9,33.9,30.37,North,5,3.5,3.5,79,0.00,SCT,,0.01,WeatherDisplay:10.37,2013-02-01 20:45:00,
2013-02-01 12:50:00,40.6,34.3,30.37,WNW,303,3.5,3.5,78,0.00,SCT,,0.01,WeatherDisplay:10.37,2013-02-01 20:50:00,
2013-02-01 12:55:00,41.3,34.6,30.37,North,349,4.0,4.0,77,0.00,SCT,,0.01,WeatherDisplay:10.37,2013-02-01 20:55:00,
2013-02-01 13:00:00,41.8,35.1,30.37,NNW,338,3.5,3.5,77,0.00,SCT,,0.01,WeatherDisplay:10.37,2013-02-01 21:00:00,
2013-02-01 13:05:00,41.9,34.9,30.37,NW,313,5.8,5.8,76,0.00,CLR,,0.01,WeatherDisplay:10.37,2013-02-01 21:05:00,
2013-02-01 13:10:00,42.5,35.1,30.36,NNW,339,4.6,4.6,75,0.00,CLR,,0.01,WeatherDisplay:10.37,2013-02-01 21:10:00,
2013-02-01 13:15:00,42.9,35.2,30.36,NNW,340,3.5,3.5,74,0.00,CLR,,0.01,WeatherDisplay:10.37,2013-02-01 21:15:00,
2013-02-01 13:20:00,43.1,35.4,30.37,NNW,329,2.3,2.3,74,0.00,CLR,,0.01,WeatherDisplay:10.37,2013-02-01 21:20:00,
2013-02-01 13:25:00,43.2,35.1,30.37,NNW,329,1.1,1.1,73,0.00,CLR,,0.01,WeatherDisplay:10.37,2013-02-01 21:25:00,
2013-02-01 13:30:00,43.7,36.6,30.36,NNW,343,3.5,3.5,76,0.00,CLR,,0.01,WeatherDisplay:10.37,2013-02-01 21:30:00,
2013-02-01 13:36:00,44.2,35.7,30.37,North,11,3.5,3.5,72,0.00,CLR,,0.01,WeatherDisplay:10.37,2013-02-01 21:36:00,
2013-02-01 13:41:00,43.8,35.0,30.37,North,11,3.5,3.5,71,0.00,CLR,,0.01,WeatherDisplay:10.37,2013-02-01 21:41:00,
2013-02-01 13:46:00,43.0,34.6,30.37,NNE,12,3.5,3.5,72,0.00,CLR,,0.01,WeatherDisplay:10.37,2013-02-01 21:46:00,
2013-02-01 13:51:00,41.9,34.2,30.38,NNE,12,3.5,3.5,74,0.00,CLR,,0.01,WeatherDisplay:10.37,2013-02-01 21:51:00,
2013-02-01 13:56:00,41.1,33.8,30.38,NNE,12,3.5,3.5,75,0.00,CLR,,0.01,WeatherDisplay:10.37,2013-02-01 21:56:00,
2013-02-01 14:01:00,40.7,33.7,30.39,NNE,12,3.5,3.5,76,0.00,CLR,,0.01,WeatherDisplay:10.37,2013-02-01 22:01:00,
2013-02-01 14:06:00,39.8,33.2,30.39,NNE,12,3.5,3.5,77,0.00,CLR,,0.01,WeatherDisplay:10.37,2013-02-01 22:06:00,
2013-02-01 14:11:00,38.8,32.8,30.40,NE,41,2.3,2.3,79,0.00,CLR,,0.01,WeatherDisplay:10.37,2013-02-01 22:11:00,
2013-02-01 14:16:00,37.8,32.5,30.40,ENE,57,3.5,3.5,81,0.00,CLR,,0.01,WeatherDisplay:10.37,2013-02-01 22:16:00,
2013-02-01 14:21:00,37.3,32.3,30.41,ENE,58,3.5,3.5,82,0.00,CLR,,0.01,WeatherDisplay:10.37,2013-02-01 22:21:00,
2013-02-01 14:26:00,36.4,32.0,30.41,ENE,58,3.5,3.5,84,0.00,CLR,,0.01,WeatherDisplay:10.37,2013-02-01 22:26:00,
2013-02-01 14:31:00,36.1,32.3,30.42,ENE,59,3.5,3.5,86,0.00,CLR,,0.01,WeatherDisplay:10.37,2013-02-01 22:31:00,
2013-02-01 14:36:00,35.8,32.0,30.42,ENE,63,3.5,3.5,86,0.00,CLR,,0.01,WeatherDisplay:10.37,2013-02-01 22:36:00,
2013-02-01 14:41:00,36.2,33.0,30.42,ENE,63,3.5,3.6,88,0.00,CLR,,0.01,WeatherDisplay:10.37,2013-02-01 22:41:00,
2013-02-01 14:46:00,37.0,33.8,30.41,ENE,63,4.6,4.6,88,0.00,CLR,,0.01,WeatherDisplay:10.37,2013-02-01 22:46:00,
2013-02-01 14:51:00,37.3,33.8,30.41,ENE,63,3.5,3.5,87,0.00,CLR,,0.01,WeatherDisplay:10.37,2013-02-01 22:51:00,
2013-02-01 14:56:00,36.9,33.4,30.41,East,90,4.0,4.0,87,0.00,CLR,,0.01,WeatherDisplay:10.37,2013-02-01 22:56:00,
2013-02-01 15:01:00,37.1,33.6,30.42,East,90,3.5,3.5,87,0.00,CLR,,0.01,WeatherDisplay:10.37,2013-02-01 23:01:00,
2013-02-01 15:06:00,37.6,34.1,30.41,East,90,3.5,3.5,87,0.00,CLR,,0.01,WeatherDisplay:10.37,2013-02-01 23:06:00,
2013-02-01 15:11:00,37.9,33.8,30.41,East,90,3.5,3.5,85,0.00,CLR,,0.01,WeatherDisplay:10.37,2013-02-01 23:11:00,
2013-02-01 15:16:00,38.4,34.0,30.41,East,90,0.0,0.0,84,0.00,CLR,,0.01,WeatherDisplay:10.37,2013-02-01 23:16:00,
2013-02-01 15:21:00,39.7,35.3,30.40,East,90,0.0,0.0,84,0.00,CLR,,0.01,WeatherDisplay:10.37,2013-02-01 23:21:00,
2013-02-01 15:26:00,40.2,34.5,30.40,East,90,0.0,0.0,80,0.00,CLR,,0.01,WeatherDisplay:10.37,2013-02-01 23:26:00,
2013-02-01 15:31:00,39.9,33.9,30.40,East,90,0.0,0.0,79,0.00,CLR,,0.01,WeatherDisplay:10.37,2013-02-01 23:31:00,
2013-02-01 15:36:00,40.2,35.1,30.41,East,90,0.0,0.0,82,0.00,CLR,,0.01,WeatherDisplay:10.37,2013-02-01 23:36:00,
2013-02-01 15:41:00,42.3,37.2,30.39,East,90,0.0,0.0,82,0.00,CLR,,0.01,WeatherDisplay:10.37,2013-02-01 23:41:00,
2013-02-01 15:46:00,44.4,37.6,30.39,East,90,0.0,0.0,77,0.00,CLR,,0.01,WeatherDisplay:10.37,2013-02-01 23:46:00,
2013-02-01 15:51:00,45.5,36.3,30.38,East,90,0.0,0.0,70,0.00,CLR,,0.01,WeatherDisplay:10.37,2013-02-01 23:51:00,
2013-02-01 15:56:00,43.9,34.7,30.39,East,90,1.1,1.1,70,0.00,CLR,,0.01,WeatherDisplay:10.37,2013-02-01 23:56:00,
2013-02-01 16:01:00,41.6,33.9,30.41,East,90,2.0,2.0,74,0.00,CLR,,0.01,WeatherDisplay:10.37,2013-02-02 00:01:00,
2013-02-01 16:06:00,40.2,33.6,30.42,East,90,2.3,2.3,77,0.00,CLR,,0.01,WeatherDisplay:10.37,2013-02-02 00:06:00,
2013-02-01 16:11:00,39.5,33.5,30.42,East,90,2.3,2.3,79,0.00,CLR,,0.01,WeatherDisplay:10.37,2013-02-02 00:11:00,
2013-02-01 16:16:00,39.2,33.5,30.42,East,90,1.1,0.0,80,0.00,CLR,,0.01,WeatherDisplay:10.37,2013-02-02 00:16:00,
2013-02-01 16:21:00,38.9,33.6,30.42,East,90,2.3,2.3,81,0.00,CLR,,0.01,WeatherDisplay:10.37,2013-02-02 00:21:00,
2013-02-01 16:26:00,38.7,33.4,30.42,East,90,0.0,0.0,81,0.00,CLR,,0.01,WeatherDisplay:10.37,2013-02-02 00:26:00,
2013-02-01 16:31:00,38.3,33.3,30.43,East,90,0.0,0.0,82,0.00,CLR,,0.01,WeatherDisplay:10.37,2013-02-02 00:31:00,
2013-02-01 16:36:00,38.2,33.5,30.43,East,90,0.0,0.0,83,0.00,CLR,,0.01,WeatherDisplay:10.37,2013-02-02 00:36:00,
2013-02-01 16:41:00,38.2,33.5,30.43,East,90,0.0,0.0,83,0.00,CLR,,0.01,WeatherDisplay:10.37,2013-02-02 00:41:00,
2013-02-01 16:46:00,37.8,33.1,30.44,East,90,3.5,3.5,83,0.00,CLR,,0.01,WeatherDisplay:10.37,2013-02-02 00:46:00,
2013-02-01 16:51:00,37.2,32.8,30.44,East,90,3.5,3.5,84,0.00,CLR,,0.01,WeatherDisplay:10.37,2013-02-02 00:51:00,
2013-02-01 16:56:00,36.7,32.9,30.44,East,90,3.5,3.5,86,0.00,CLR,,0.01,WeatherDisplay:10.37,2013-02-02 00:56:00,
2013-02-01 17:01:00,36.2,32.4,30.44,East,90,3.5,3.5,86,0.00,CLR,,0.01,WeatherDisplay:10.37,2013-02-02 01:01:00,
2013-02-01 17:06:00,36.0,32.5,30.43,East,90,0.0,0.0,87,0.00,CLR,,0.01,WeatherDisplay:10.37,2013-02-02 01:06:00,
2013-02-01 17:11:00,35.3,31.2,30.44,East,90,0.0,0.0,85,0.00,CLR,,0.01,WeatherDisplay:10.37,2013-02-02 01:11:00,
2013-02-01 17:16:00,34.4,31.2,30.45,East,90,2.0,2.0,88,0.00,CLR,,0.01,WeatherDisplay:10.37,2013-02-02 01:16:00,
2013-02-01 17:21:00,33.9,30.7,30.45,East,90,0.0,0.0,88,0.00,CLR,,0.01,WeatherDisplay:10.37,2013-02-02 01:21:00,
2013-02-01 17:26:00,33.4,30.2,30.46,East,90,0.0,0.0,88,0.00,CLR,,0.01,WeatherDisplay:10.37,2013-02-02 01:26:00,
2013-02-01 17:31:00,33.2,30.3,30.46,East,90,2.3,2.3,89,0.00,CLR,,0.01,WeatherDisplay:10.37,2013-02-02 01:31:00,
2013-02-01 17:36:00,33.4,30.8,30.45,East,90,2.3,2.3,90,0.00,CLR,,0.01,WeatherDisplay:10.37,2013-02-02 01:36:00,
2013-02-01 17:41:00,33.5,30.6,30.45,East,94,2.3,2.3,89,0.00,CLR,,0.01,WeatherDisplay:10.37,2013-02-02 01:41:00,
2013-02-01 17:46:00,33.2,30.3,30.46,East,94,1.1,0.0,89,0.00,CLR,,0.01,WeatherDisplay:10.37,2013-02-02 01:46:00,
2013-02-01 17:51:00,32.9,30.0,30.45,East,94,0.0,0.0,89,0.00,CLR,,0.01,WeatherDisplay:10.37,2013-02-02 01:51:00,
2013-02-01 17:56:00,32.6,30.0,30.46,East,92,0.0,0.0,90,0.00,CLR,,0.01,WeatherDisplay:10.37,2013-02-02 01:56:00,
2013-02-01 18:01:00,32.8,30.2,30.46,East,94,0.0,0.0,90,0.00,CLR,,0.01,WeatherDisplay:10.37,2013-02-02 02:01:00,
2013-02-01 18:06:00,33.2,30.9,30.47,East,94,0.0,0.0,91,0.00,CLR,,0.01,WeatherDisplay:10.37,2013-02-02 02:06:00,
2013-02-01 18:11:00,33.2,30.6,30.47,East,92,0.0,0.0,90,0.00,CLR,,0.01,WeatherDisplay:10.37,2013-02-02 02:11:00,
2013-02-01 18:16:00,32.8,30.2,30.47,East,94,1.0,1.0,90,0.00,CLR,,0.01,WeatherDisplay:10.37,2013-02-02 02:16:00,
2013-02-01 18:21:00,32.7,30.1,30.47,East,94,0.0,0.0,90,0.00,CLR,,0.01,WeatherDisplay:10.37,2013-02-02 02:21:00,
2013-02-01 18:26:00,32.4,29.8,30.47,East,94,0.0,0.0,90,0.00,CLR,,0.01,WeatherDisplay:10.37,2013-02-02 02:26:00,
2013-02-01 18:31:00,32.1,29.5,30.47,East,94,0.0,0.0,90,0.00,CLR,,0.01,WeatherDisplay:10.37,2013-02-02 02:31:00,
2013-02-01 18:36:00,31.1,28.2,30.48,East,92,0.0,0.0,89,0.00,CLR,,0.01,WeatherDisplay:10.37,2013-02-02 02:36:00,
2013-02-01 18:41:00,31.0,28.7,30.48,East,94,2.3,2.3,91,0.00,CLR,,0.01,WeatherDisplay:10.37,2013-02-02 02:41:00,
2013-02-01 18:46:00,31.4,29.3,30.48,SE,125,3.5,3.5,92,0.00,CLR,,0.01,WeatherDisplay:10.37,2013-02-02 02:46:00,
2013-02-01 18:51:00,31.2,28.9,30.48,SE,125,2.3,2.3,91,0.00,CLR,,0.01,WeatherDisplay:10.37,2013-02-02 02:51:00,
2013-02-01 18:56:00,31.7,29.6,30.48,SE,125,3.5,3.5,92,0.00,CLR,,0.01,WeatherDisplay:10.37,2013-02-02 02:56:00,
2013-02-01 19:01:00,31.4,29.1,30.48,SE,125,2.3,2.3,91,0.00,CLR,,0.01,WeatherDisplay:10.37,2013-02-02 03:01:00,
2013-02-01 19:06:00,31.0,28.7,30.48,SE,125,2.3,2.3,91,0.00,CLR,,0.01,WeatherDisplay:10.37,2013-02-02 03:06:00,
2013-02-01 19:11:00,30.7,28.4,30.49,SE,125,2.3,2.3,91,0.00,CLR,,0.01,WeatherDisplay:10.37,2013-02-02 03:11:00,
2013-02-01 19:16:00,30.4,28.1,30.49,SE,125,1.1,1.1,91,0.00,CLR,,0.01,WeatherDisplay:10.37,2013-02-02 03:16:00,
2013-02-01 19:21:00,29.8,27.5,30.49,SE,125,2.3,2.3,91,0.00,CLR,,0.01,WeatherDisplay:10.37,2013-02-02 03:21:00,
2013-02-01 19:26:00,29.8,27.8,30.49,SE,130,2.3,2.4,92,0.00,CLR,,0.01,WeatherDisplay:10.37,2013-02-02 03:26:00,
2013-02-01 19:31:00,29.7,27.7,30.49,SE,132,3.5,3.5,92,0.00,CLR,,0.01,WeatherDisplay:10.37,2013-02-02 03:31:00,
2013-02-01 19:36:00,29.3,27.0,30.50,SE,132,2.3,2.3,91,0.00,CLR,,0.01,WeatherDisplay:10.37,2013-02-02 03:36:00,
2013-02-01 19:41:00,28.8,26.5,30.50,SE,132,3.5,3.5,91,0.00,CLR,,0.01,WeatherDisplay:10.37,2013-02-02 03:41:00,
2013-02-01 19:46:00,28.5,26.5,30.50,SE,132,2.3,2.3,92,0.00,CLR,,0.01,WeatherDisplay:10.37,2013-02-02 03:46:00,
2013-02-01 19:52:00,28.4,26.4,30.50,SE,132,1.0,1.0,92,0.00,CLR,,0.01,WeatherDisplay:10.37,2013-02-02 03:52:00,
2013-02-01 19:57:00,28.5,26.5,30.50,SE,132,2.3,2.3,92,0.00,CLR,,0.01,WeatherDisplay:10.37,2013-02-02 03:57:00,
2013-02-01 20:02:00,28.5,26.5,30.49,SSE,157,3.5,3.5,92,0.00,CLR,,0.01,WeatherDisplay:10.37,2013-02-02 04:02:00,
2013-02-01 20:07:00,28.6,26.6,30.49,SSE,158,3.5,3.5,92,0.00,CLR,,0.01,WeatherDisplay:10.37,2013-02-02 04:07:00,
2013-02-01 20:12:00,28.8,26.8,30.49,SSE,162,5.0,5.0,92,0.00,CLR,,0.01,WeatherDisplay:10.37,2013-02-02 04:12:00,
2013-02-01 20:17:00,30.0,28.2,30.49,SSE,162,4.6,4.6,93,0.00,CLR,,0.01,WeatherDisplay:10.37,2013-02-02 04:17:00,
2013-02-01 20:22:00,29.4,27.4,30.49,SSE,162,5.0,5.0,92,0.00,CLR,,0.01,WeatherDisplay:10.37,2013-02-02 04:22:00,
2013-02-01 20:27:00,29.0,26.7,30.49,SSE,162,3.5,3.5,91,0.00,CLR,,0.01,WeatherDisplay:10.37,2013-02-02 04:27:00,
2013-02-01 20:32:00,29.2,27.2,30.49,SSE,163,5.0,5.0,92,0.00,CLR,,0.01,WeatherDisplay:10.37,2013-02-02 04:32:00,
2013-02-01 20:37:00,29.8,27.8,30.49,SSE,163,4.6,4.6,92,0.00,CLR,,0.01,WeatherDisplay:10.37,2013-02-02 04:37:00,
2013-02-01 20:42:00,30.3,28.3,30.49,SSE,163,5.0,5.0,92,0.00,CLR,,0.01,WeatherDisplay:10.37,2013-02-02 04:42:00,
2013-02-01 20:47:00,30.4,28.1,30.50,SSE,165,5.8,5.8,91,0.00,CLR,,0.01,WeatherDisplay:10.37,2013-02-02 04:47:00,
2013-02-01 20:52:00,30.5,28.2,30.50,SSE,165,5.0,5.0,91,0.00,CLR,,0.01,WeatherDisplay:10.37,2013-02-02 04:52:00,
2013-02-01 20:57:00,29.9,27.3,30.50,SSE,165,4.6,4.9,90,0.00,CLR,,0.01,WeatherDisplay:10.37,2013-02-02 04:57:00,
2013-02-01 21:00:00,29.4,26.8,30.47,SSE,165,5.0,5.0,90,0.00,CLR,,0.01,WeatherDisplay:10.37,2013-02-02 05:00:00,
2013-02-01 21:05:00,29.8,27.8,30.47,SSE,165,5.0,5.0,92,0.00,CLR,,0.01,WeatherDisplay:10.37,2013-02-02 05:05:00,
2013-02-01 21:10:00,30.3,28.3,30.47,SSE,165,5.0,5.0,92,0.00,CLR,,0.01,WeatherDisplay:10.37,2013-02-02 05:10:00,
2013-02-01 21:15:00,29.9,27.6,30.47,SSE,165,4.6,4.6,91,0.00,CLR,,0.01,WeatherDisplay:10.37,2013-02-02 05:15:00,
2013-02-01 21:20:00,29.8,27.8,30.47,SSE,165,4.0,4.0,92,0.00,CLR,,0.01,WeatherDisplay:10.37,2013-02-02 05:20:00,
2013-02-01 21:25:00,29.7,27.7,30.47,SSE,165,3.5,3.5,92,0.00,CLR,,0.01,WeatherDisplay:10.37,2013-02-02 05:25:00,
2013-02-01 21:30:00,29.7,27.7,30.47,SSE,165,3.5,3.5,92,0.00,CLR,,0.01,WeatherDisplay:10.37,2013-02-02 05:30:00,
2013-02-01 21:35:00,29.4,27.1,30.48,SSE,165,0.0,0.0,91,0.00,CLR,,0.01,WeatherDisplay:10.37,2013-02-02 05:35:00,
2013-02-01 21:40:00,29.3,27.3,30.48,SSE,165,0.0,0.0,92,0.00,CLR,,0.01,WeatherDisplay:10.37,2013-02-02 05:40:00,
2013-02-01 21:45:00,29.2,27.2,30.48,SSE,165,2.3,2.3,92,0.00,CLR,,0.01,WeatherDisplay:10.37,2013-02-02 05:45:00,
2013-02-01 21:50:00,30.1,28.3,30.48,SSE,165,5.0,5.0,93,0.00,CLR,,0.01,WeatherDisplay:10.37,2013-02-02 05:50:00,
2013-02-01 21:55:00,31.0,29.2,30.47,SSE,165,5.0,5.0,93,0.00,CLR,,0.01,WeatherDisplay:10.37,2013-02-02 05:55:00,
2013-02-01 22:00:00,31.5,29.4,30.49,SSE,165,5.0,5.0,92,0.00,CLR,,0.01,WeatherDisplay:10.37,2013-02-02 06:00:00,
2013-02-01 22:05:00,31.0,28.7,30.50,SSE,165,5.0,5.0,91,0.00,CLR,,0.01,WeatherDisplay:10.37,2013-02-02 06:05:00,
2013-02-01 22:10:00,30.4,28.1,30.50,SSE,165,6.0,6.0,91,0.00,CLR,,0.01,WeatherDisplay:10.37,2013-02-02 06:10:00,
2013-02-01 22:15:00,30.3,28.0,30.50,South,173,6.9,6.9,91,0.00,CLR,,0.01,WeatherDisplay:10.37,2013-02-02 06:15:00,
2013-02-01 22:20:00,30.4,28.1,30.50,South,180,7.0,7.0,91,0.00,CLR,,0.01,WeatherDisplay:10.37,2013-02-02 06:20:00,
2013-02-01 22:25:00,30.4,28.1,30.50,South,181,6.9,6.9,91,0.00,CLR,,0.01,WeatherDisplay:10.37,2013-02-02 06:25:00,
2013-02-01 22:30:00,31.0,28.9,30.50,South,181,6.9,6.9,92,0.00,CLR,,0.01,WeatherDisplay:10.37,2013-02-02 06:30:00,
2013-02-01 22:36:00,31.9,29.8,30.49,South,180,5.8,5.8,92,0.00,CLR,,0.01,WeatherDisplay:10.37,2013-02-02 06:36:00,
2013-02-01 22:41:00,30.8,27.9,30.50,South,181,4.6,4.6,89,0.00,CLR,,0.01,WeatherDisplay:10.37,2013-02-02 06:41:00,
2013-02-01 22:46:00,30.2,27.6,30.50,South,181,3.5,3.5,90,0.00,CLR,,0.01,WeatherDisplay:10.37,2013-02-02 06:46:00,
2013-02-01 22:51:00,30.8,28.5,30.50,South,181,5.8,5.8,91,0.00,CLR,,0.01,WeatherDisplay:10.37,2013-02-02 06:51:00,
2013-02-01 22:56:00,31.1,28.5,30.50,South,181,5.8,5.8,90,0.00,CLR,,0.01,WeatherDisplay:10.37,2013-02-02 06:56:00,
2013-02-01 23:01:00,30.1,27.3,30.49,South,181,4.0,4.0,89,0.00,CLR,,0.01,WeatherDisplay:10.37,2013-02-02 07:01:00,
2013-02-01 23:06:00,29.6,27.0,30.50,South,181,3.5,3.6,90,0.00,CLR,,0.01,WeatherDisplay:10.37,2013-02-02 07:06:00,
2013-02-01 23:11:00,29.9,27.3,30.50,South,181,5.0,5.0,90,0.00,CLR,,0.01,WeatherDisplay:10.37,2013-02-02 07:11:00,
2013-02-01 23:16:00,29.8,27.2,30.50,South,180,4.6,4.6,90,0.00,CLR,,0.01,WeatherDisplay:10.37,2013-02-02 07:16:00,
2013-02-01 23:21:00,28.9,26.1,30.50,South,180,3.5,3.9,89,0.00,CLR,,0.01,WeatherDisplay:10.37,2013-02-02 07:21:00,
2013-02-01 23:26:00,28.9,26.6,30.50,South,181,4.6,4.6,91,0.00,CLR,,0.01,WeatherDisplay:10.37,2013-02-02 07:26:00,
2013-02-01 23:31:00,29.4,27.1,30.50,South,181,3.5,3.6,91,0.00,CLR,,0.01,WeatherDisplay:10.37,2013-02-02 07:31:00,
2013-02-01 23:36:00,29.9,27.9,30.50,South,181,4.6,4.6,92,0.00,CLR,,0.01,WeatherDisplay:10.37,2013-02-02 07:36:00,
2013-02-01 23:41:00,29.8,27.5,30.50,South,181,5.8,5.8,91,0.00,CLR,,0.01,WeatherDisplay:10.37,2013-02-02 07:41:00,
2013-02-01 23:46:00,30.1,28.1,30.50,South,181,5.0,5.0,92,0.00,CLR,,0.01,WeatherDisplay:10.37,2013-02-02 07:46:00,
2013-02-01 23:51:00,31.2,29.4,30.49,South,180,6.0,6.0,93,0.00,CLR,,0.01,WeatherDisplay:10.37,2013-02-02 07:51:00,
2013-02-01 23:56:00,31.6,29.5,30.49,SSE,151,5.8,5.8,92,0.00,CLR,,0.01,WeatherDisplay:10.37,2013-02-02 07:56:00,